Location: Newark
(44.1667°N, 8.2500°E)
Time: 12:46:39
(UTC+00:00)

Vanguard 2 - Pass Details

Date: 10 December 2019
Orbit: 553 x 2938 km, 32.9° (Epoch: 18 January)

Event Time Altitude Azimuth Distance (km) Brightness Sun altitude
Exits shadow 05:54:34 - 271° (W) 6,147 11.5 -9.8°
Reaches altitude 10° 05:56:26 10° 268° (W) 5,766 11.4 -9.5°
Maximum altitude 06:11:53 40° 208° (SSW) 3,395 10.8 -7.0°
Drops below altitude 10° 06:23:40 10° 144° (SE) 4,418 12.6 -5.1°
Sets 06:26:54 0° 137° (SE) 5,111 13.4 -4.6°
